[[{"header":{"parameterUnit":"m.s-1","parameterCategory":1,"la1":30.2991,"la2":30.254,"lo1":-89.0895,"lo2":-89.0444,"dy":0.0017,"dx":0.0017,"nx":28,"ny":28,"refTime":"2023-08-21T09:00:00:Z","depth":0,"parameterNumber":2,"parameterNumberName":"U-component_of_WINDS"},"data":[0,0,0,0,0,0,0,0,0,0,0,0,0,0,0,0,0,0,0,0,0,0,0,0,0,0,0,0,0,0,0,0,0,0,0,0,0,0,0,0,0,0,0,0,0,0,0,0,0,0,0,0,0,0,0,0,0,0,3.1222,3.1223,0,3.134,3.1341,3.1343,3.133,3.1328,3.1326,3.1324,3.1446,3.1451,3.1456,0,0,0,0,0,0,0,0,0,0,0,0,0,3.0984,3.0988,3.1221,3.1223,3.1224,3.134,3.1342,3.1343,3.133,3.1328,3.1326,3.1324,3.1444,3.145,3.1456,0,0,0,0,0,0,0,0,0,0,0,0,0,3.1093,3.099,3.1221,3.1232,3.1234,3.134,3.1342,3.1344,3.1331,3.1328,3.1325,3.1322,3.1442,3.1449,3.1457,3.1559,0,0,3.148,3.1483,0,0,0,0,0,0,0,0,3.1087,3.1102,3.1229,3.1231,3.1234,3.1317,3.1302,3.1416,3.1331,3.1294,3.1324,3.1321,3.1405,3.1416,3.1444,3.1565,3.157,3.148,3.1485,3.1488,3.149,0,0,0,0,0,0,0,3.1079,3.1097,3.1268,3.1231,3.1234,3.1231,3.1243,3.1324,3.1364,3.1297,3.1296,3.1311,3.1406,3.1437,3.1447,3.1572,3.148,3.1487,3.1491,3.1494,3.1782,3.1785,0,0,0,0,0,0,3.1069,3.109,3.1265,3.1272,3.1152,3.1237,3.1251,3.1293,3.1363,3.1371,3.1313,3.131,3.1426,3.1438,3.1451,3.1574,3.1488,3.1495,3.1499,3.1779,3.1783,3.1786,0,0,0,0,0,0,3.1064,3.1085,3.126,3.1181,3.1203,3.1244,3.1292,3.1297,3.1328,3.1375,3.1382,3.1337,3.1424,3.1441,3.1532,3.1578,3.1498,3.1505,3.1775,3.178,3.1784,3.1823,0,0,0,0,0,0,3.1057,3.1083,3.1122,3.1182,3.1207,3.1339,3.1295,3.1302,3.1341,3.1338,3.1399,3.1407,3.1423,3.1521,3.154,3.1587,3.1511,3.1771,3.1777,3.1783,3.1817,3.1828,3.1837,0,0,0,0,0,3.1049,3.1129,3.1124,3.1146,3.1257,3.1342,3.1356,3.1373,3.1345,3.1384,3.1415,3.1405,3.1571,3.1531,3.1551,3.1602,3.1768,3.1775,3.1782,3.1813,3.1826,3.1837,0,0,0,0,0,0,3.1073,3.1137,3.1133,3.1234,3.1283,3.1339,3.139,3.1386,3.1444,3.1438,3.1457,3.1471,3.1563,3.1592,3.1546,3.1704,3.1666,3.1677,3.1682,3.1695,3.1704,3.1695,3.1517,0,0,0,0,0,3.109,3.1154,3.1206,3.129,3.1315,3.1348,3.1386,3.1395,3.1445,3.1466,3.1503,3.1553,3.1616,3.1657,3.1718,3.1822,3.1835,3.1867,3.1877,3.1885,3.1894,3.1951,3.1965,3.1809,3.1809,3.1809,0,0,3.1127,3.1169,3.1208,3.1296,3.1335,3.14,3.1366,3.1436,3.1484,3.1477,3.1565,3.1594,3.1651,3.1749,3.1794,3.1776,3.1941,3.1894,3.19,3.1905,3.1959,3.1974,3.1987,3.1814,3.1813,3.1813,0,0,3.1225,3.1264,3.1338,3.1378,3.1437,3.1458,3.1476,3.1534,3.1553,3.1642,3.1637,3.1695,3.1804,3.1844,3.1879,3.1994,3.1986,3.2013,3.2064,3.2119,3.2131,3.2142,3.2181,3.2195,3.2023,3.2023,3.2023,0,3.1262,3.136,3.1377,3.1448,3.1486,3.1483,3.1558,3.1595,3.1671,3.1698,3.1677,3.1813,3.1851,3.1958,3.1986,3.2015,3.2035,3.2005,3.2128,3.2139,3.215,3.2187,3.2202,3.2025,3.2025,3.2025,3.2025,0,3.1402,3.147,3.1522,3.1595,3.164,3.1713,3.1741,3.1784,3.1789,3.1813,3.1904,3.195,3.2019,3.2046,3.2052,3.2154,3.2141,3.2124,3.2085,3.2167,3.2202,3.2217,3.2029,3.2028,3.2028,3.2027,0,0,3.1518,3.1599,3.1618,3.1651,3.1716,3.1769,3.1841,3.1909,3.1946,3.1999,3.2059,3.2151,3.2136,3.2176,3.2186,3.2234,3.232,3.2212,3.2213,3.2229,3.2434,3.2445,3.2461,3.2317,3.232,3.2322,3.2429,0,3.1621,3.1749,3.1766,3.1879,3.1941,3.194,3.2003,3.2049,3.2074,3.213,3.2158,3.2222,3.2198,3.2222,3.2269,3.23,3.2362,3.2293,3.2372,3.2375,3.2356,3.248,3.2492,3.2591,3.2443,3.2445,3.2447,0,3.1759,3.1815,3.1934,3.199,3.2016,3.2073,3.2136,3.2191,3.2243,3.2258,3.2302,3.2307,3.2382,3.2341,3.2444,3.2396,3.2431,3.2451,3.2455,3.2461,3.2415,3.2489,3.2623,3.2637,3.247,3.2468,3.2466,0,3.1829,3.1935,3.2019,3.2048,3.2115,3.2155,3.2185,3.2235,3.2275,3.2331,3.2356,3.2421,3.2455,3.2505,3.2526,3.2495,3.2628,3.2589,3.2641,3.264,3.2667,3.2665,3.2807,3.2692,3.2692,3.2692,3.2692,0,3.1942,3.2014,3.2052,3.2103,3.2184,3.2204,3.2284,3.2313,3.2357,3.2415,3.2418,3.2471,3.2498,3.2555,3.2573,3.2655,3.2671,3.2684,3.2688,3.2683,3.2681,3.2704,3.2697,3.2696,3.2695,3.2694,3.2694,0,3.2033,3.2062,3.2153,3.221,3.2226,3.2283,3.2332,3.2382,3.2406,3.2479,3.2497,3.2535,3.2603,3.263,3.2714,3.2726,3.2819,3.2818,3.2801,3.2802,3.2851,3.2845,3.3011,3.3034,3.2906,3.2907,3.2908,0,3.2103,3.2158,3.2221,3.2259,3.2291,3.2353,3.2393,3.2415,3.2457,3.2521,3.2564,3.2632,3.2687,3.2796,3.2831,3.2895,3.2894,3.2948,3.2904,3.2897,3.2893,3.2889,3.2894,3.2955,3.2957,3.2958,3.2959,0,3.2222,3.2233,3.2291,3.2354,3.2402,3.2453,3.2502,3.2534,3.2563,3.261,3.268,3.2723,3.2808,3.2875,3.294,3.2971,3.297,3.2973,3.2988,3.2982,3.2969,3.2975,3.2821,3.2968,3.2967,3.2967,3.2966,3.2966,3.2303,3.2352,3.2404,3.2468,3.2508,3.2554,3.2603,3.2634,3.2692,3.2763,3.2773,3.2847,3.2898,3.2986,3.302,3.3078,3.3064,3.3086,3.3092,3.3096,3.3099,3.2962,3.309,3.309,3.309,3.309,3.309,0,3.2421,3.2454,3.2513,3.2582,3.2633,3.2628,3.2682,3.2725,3.279,3.2838,3.2892,3.2971,3.3037,3.3077,3.3143,3.3181,3.3182,3.3198,3.3194,3.3201,3.3108,3.3088,3.3196,3.3196,3.3196,3.3196,3.3196,3.3196,3.2488,3.257,3.2588,3.2689,3.2722,3.2794,3.2825,3.2868,3.2906,3.2994,3.3048,3.3075,3.312,3.3189,3.3248,3.3258,3.3281,3.3298,3.3307,3.3219,3.3208,3.3197,3.3178,3.3303,3.3303,3.3394,3.3395,3.3396]},{"header":{"parameterUnit":"m.s-1","parameterCategory":1,"la1":30.2991,"la2":30.254,"lo1":-89.0895,"lo2":-89.0444,"dy":0.0017,"dx":0.0017,"nx":28,"ny":28,"refTime":"2023-08-21T09:00:00:Z","depth":0,"parameterNumber":3,"parameterNumberName":"V-component_of_WINDS"},"data":[0,0,0,0,0,0,0,0,0,0,0,0,0,0,0,0,0,0,0,0,0,0,0,0,0,0,0,0,0,0,0,0,0,0,0,0,0,0,0,0,0,0,0,0,0,0,0,0,0,0,0,0,0,0,0,0,0,0,0.2432,0.2432,0,0.2432,0.2432,0.2432,0.2417,0.2417,0.2416,0.2416,0.2416,0.2416,0.2417,0,0,0,0,0,0,0,0,0,0,0,0,0,0.2417,0.2418,0.2432,0.2432,0.2432,0.2432,0.2432,0.2432,0.2417,0.2417,0.2416,0.2416,0.2416,0.2416,0.2417,0,0,0,0,0,0,0,0,0,0,0,0,0,0.2421,0.2418,0.2432,0.2424,0.2424,0.2432,0.2432,0.2432,0.2417,0.2417,0.2416,0.2415,0.2416,0.2416,0.2417,0.2433,0,0,0.2419,0.2419,0,0,0,0,0,0,0,0,0.2421,0.2422,0.2426,0.2425,0.2424,0.2424,0.2427,0.2432,0.2417,0.242,0.2416,0.2415,0.2419,0.2419,0.2421,0.2433,0.2433,0.2419,0.2419,0.2419,0.2419,0,0,0,0,0,0,0,0.2421,0.2422,0.2432,0.2426,0.2425,0.2421,0.2421,0.2428,0.2423,0.2419,0.2418,0.2419,0.2419,0.242,0.2421,0.2433,0.2419,0.2419,0.242,0.242,0.2456,0.2457,0,0,0,0,0,0,0.2422,0.2422,0.2432,0.2432,0.2421,0.2421,0.2421,0.2425,0.2423,0.2422,0.2419,0.2418,0.242,0.242,0.2421,0.2438,0.2419,0.242,0.242,0.2455,0.2456,0.2457,0,0,0,0,0,0,0.2421,0.2423,0.2432,0.2426,0.2427,0.2422,0.2426,0.2425,0.2427,0.2422,0.2421,0.2422,0.2419,0.242,0.243,0.2438,0.242,0.2421,0.2455,0.2456,0.2457,0.2474,0,0,0,0,0,0,0.2421,0.2423,0.2429,0.2427,0.2428,0.2441,0.2427,0.2425,0.2428,0.2426,0.2425,0.2424,0.2419,0.2429,0.243,0.2439,0.2421,0.2454,0.2455,0.2456,0.2473,0.2476,0.2478,0,0,0,0,0,0.2421,0.2434,0.2429,0.2431,0.2435,0.2442,0.2442,0.2436,0.2428,0.2434,0.2431,0.2424,0.2437,0.243,0.2431,0.244,0.2453,0.2455,0.2456,0.2472,0.2475,0.2478,0,0,0,0,0,0,0.2438,0.2434,0.2428,0.2442,0.2442,0.2439,0.2447,0.244,0.2443,0.2441,0.2433,0.2433,0.2444,0.2443,0.2435,0.2455,0.2444,0.2445,0.2455,0.2458,0.2461,0.2461,0.2422,0,0,0,0,0,0.2443,0.2449,0.2445,0.2457,0.2457,0.2452,0.2454,0.245,0.245,0.245,0.2448,0.2448,0.2452,0.2455,0.2459,0.2472,0.2471,0.2479,0.2482,0.2484,0.2485,0.2492,0.2495,0.2461,0.2461,0.2461,0,0,0.2454,0.2453,0.2457,0.246,0.246,0.2466,0.2452,0.2459,0.2463,0.2451,0.246,0.2458,0.2458,0.2469,0.2474,0.2469,0.2494,0.2485,0.2487,0.2488,0.2494,0.2497,0.25,0.2462,0.2462,0.2462,0,0,0.2477,0.2477,0.2486,0.2486,0.2486,0.2482,0.2484,0.2482,0.248,0.2489,0.248,0.2484,0.2492,0.2492,0.2493,0.2514,0.2507,0.2516,0.2529,0.2536,0.2538,0.2541,0.2548,0.2551,0.2517,0.2517,0.2517,0,0.2491,0.2499,0.2492,0.2499,0.2501,0.249,0.2499,0.2499,0.25,0.2501,0.2495,0.2503,0.2502,0.2513,0.2519,0.252,0.2522,0.2516,0.2538,0.2541,0.2543,0.255,0.2552,0.2518,0.2518,0.2518,0.2518,0,0.2516,0.2522,0.253,0.2531,0.2533,0.2541,0.2535,0.2538,0.2532,0.2529,0.2538,0.2536,0.2539,0.2541,0.2536,0.2551,0.2547,0.254,0.2529,0.2547,0.2553,0.2556,0.252,0.2519,0.2519,0.2519,0,0,0.2551,0.2547,0.255,0.255,0.2548,0.2552,0.2559,0.2562,0.2564,0.2565,0.2571,0.2577,0.2569,0.257,0.2565,0.2571,0.2587,0.2562,0.2562,0.2567,0.2603,0.2609,0.2612,0.2582,0.2583,0.2583,0.2603,0,0.2573,0.2586,0.2579,0.2592,0.2597,0.2586,0.2592,0.2591,0.2588,0.2592,0.2588,0.2592,0.2582,0.2583,0.2588,0.2584,0.2594,0.2583,0.2587,0.2588,0.2588,0.2615,0.2622,0.264,0.2606,0.2606,0.2606,0,0.2601,0.2602,0.2616,0.2612,0.2614,0.262,0.2621,0.2625,0.2623,0.262,0.2621,0.2614,0.262,0.2609,0.2618,0.261,0.2611,0.261,0.261,0.261,0.2598,0.2616,0.2646,0.2649,0.261,0.261,0.261,0,0.2625,0.263,0.2639,0.2639,0.2635,0.2639,0.2638,0.2636,0.2637,0.2638,0.2639,0.264,0.2641,0.2643,0.2636,0.2628,0.2645,0.2633,0.2642,0.2643,0.2647,0.2647,0.2677,0.2648,0.2648,0.2648,0.2648,0,0.265,0.2659,0.2649,0.2654,0.2663,0.2655,0.2664,0.2662,0.266,0.2664,0.2654,0.2659,0.265,0.2653,0.2647,0.2655,0.2655,0.2653,0.2652,0.2654,0.2654,0.2655,0.2653,0.2648,0.2648,0.2648,0.2648,0,0.2678,0.2672,0.2681,0.2676,0.2675,0.2682,0.2677,0.2682,0.2678,0.2683,0.2684,0.2677,0.268,0.2674,0.2676,0.2672,0.2683,0.2679,0.2683,0.2682,0.2691,0.2691,0.2724,0.2727,0.2696,0.2696,0.2696,0,0.2695,0.2701,0.2697,0.2699,0.2698,0.2702,0.2703,0.2695,0.2696,0.2695,0.2699,0.2701,0.2703,0.2708,0.2703,0.2704,0.2701,0.2712,0.2701,0.2703,0.2701,0.27,0.2701,0.2715,0.2715,0.2715,0.2716,0,0.2725,0.2721,0.2724,0.2725,0.2726,0.2727,0.2726,0.2729,0.272,0.2722,0.2725,0.2726,0.2727,0.273,0.273,0.2728,0.272,0.2719,0.2721,0.2724,0.2726,0.2724,0.2689,0.2718,0.2718,0.2718,0.2718,0.2718,0.2748,0.2753,0.275,0.2753,0.2751,0.2751,0.2755,0.2751,0.2753,0.2754,0.2748,0.2752,0.275,0.2749,0.2748,0.275,0.2745,0.2748,0.2749,0.275,0.2751,0.2725,0.275,0.275,0.275,0.275,0.275,0,0.2777,0.2775,0.2777,0.2777,0.2778,0.2771,0.277,0.2772,0.2775,0.2773,0.2775,0.2777,0.2779,0.2774,0.2775,0.2778,0.2774,0.2778,0.2778,0.2778,0.2756,0.2754,0.2781,0.2781,0.2781,0.2781,0.2781,0.2781,0.2793,0.28,0.2796,0.2802,0.28,0.2803,0.2803,0.2803,0.2801,0.2805,0.2806,0.2803,0.2799,0.28,0.2801,0.2799,0.28,0.2805,0.2802,0.2782,0.2779,0.2776,0.2774,0.2805,0.2805,0.2823,0.2823,0.2824]}]]